Location: Prairie State College
(41.5244°N, 87.6382°W)
Time: 09:40:22
(UTC-05:00)

Cosmos 1140 Rocket - Visible Passes

Search period start: 29 August 2015 00:00
Search period end: 08 September 2015 00:00
Orbit: 746 x 767 km, 74.1° (Epoch: 28 August)

Date Brightness Start Highest point End Pass type
(mag) Time Alt. Az. Time Alt. Az. Time Alt. Az.
29 Aug 5.7 01:58:28 19° ENE 01:58:28 19° ENE 02:00:25 10° NE visible
29 Aug 4.4 03:38:30 34° NW 03:38:30 34° NW 03:42:31 10° N visible
30 Aug 4.5 02:58:59 40° N 02:58:59 40° N 03:02:22 10° NNE visible
31 Aug 5.2 02:19:26 29° NNE 02:19:26 29° NNE 02:21:57 10° NNE visible
31 Aug 5.4 03:59:28 16° NW 03:59:28 16° NW 04:02:22 10° NNW visible
01 Sep 5.9 01:39:52 17° NE 01:39:52 17° NE 01:41:13 10° NE visible
01 Sep 5.1 03:19:54 24° NNW 03:19:54 24° NNW 03:22:47 10° N visible
02 Sep 5.2 02:40:19 27° N 02:40:19 27° N 02:42:46 10° N visible
03 Sep 5.7 02:00:42 22° NNE 02:00:42 22° NNE 02:02:28 10° NNE visible
03 Sep 5.8 03:40:44 12° NW 03:40:44 12° NW 03:42:04 10° NNW visible
04 Sep 6.1 01:21:05 15° NNE 01:21:05 15° NNE 01:21:55 10° NNE visible
04 Sep 5.6 03:01:06 17° NNW 03:01:06 17° NNW 03:02:58 10° N visible
05 Sep 5.7 02:21:28 19° N 02:21:28 19° N 02:23:07 10° N visible
06 Sep 6.0 01:41:48 17° NNE 01:41:48 17° NNE 01:42:58 10° NNE visible
07 Sep 6.3 01:02:08 12° NNE 01:02:08 12° NNE 01:02:32 10° NNE visible
07 Sep 6.0 02:42:09 13° NNW 02:42:09 13° NNW 02:42:59 10° NNW visible
